This is the latest recevied weather packets stored in our database for station/object KJ5JYX. If no packets are shown the sender has not sent any weather packets the latest 10 day(s).
| Time | Temp. | Humidity | Pressure | Rain* | Wind** | Luminosity | Snow |
|---|---|---|---|---|---|---|---|
| 1777755273 | 23.89° C | 43% | 1021.9 hPa | 0 mm | - | 263 W/m² | - |
| 1777754971 | 23.89° C | 47% | 1022.2 hPa | 0 mm | - | 603 W/m² | - |
| 1777754365 | 25° C | 41% | 1022.4 hPa | 0 mm | - | 635 W/m² | - |
| 1777754063 | 25° C | 41% | 1022.1 hPa | 0 mm | - | 651 W/m² | - |
| 1777753758 | 23.89° C | 39% | 1022.1 hPa | 0 mm | - | 641 W/m² | - |
| 1777753455 | 24.44° C | 41% | 1022.3 hPa | 0 mm | - | 637 W/m² | - |
| 1777753154 | 23.89° C | 42% | 1022.3 hPa | 0 mm | - | 640 W/m² | - |
| 1777752849 | 23.33° C | 41% | 1022.6 hPa | 0 mm | - | 647 W/m² | - |
| 1777752241 | 23.89° C | 40% | 1022.5 hPa | 0 mm | - | 644 W/m² | - |
| 1777751940 | 23.89° C | 38% | 1022.5 hPa | 0 mm | - | 651 W/m² | - |
| 1777751333 | 24.44° C | 43% | 1022.6 hPa | 0 mm | - | 665 W/m² | - |
| 1777751030 | 23.89° C | 39% | 1022.5 hPa | 0 mm | - | 671 W/m² | - |
| 1777750725 | 23.89° C | 40% | 1022.6 hPa | 0 mm | - | 670 W/m² | - |
| 1777750118 | 23.89° C | 46% | 1022.7 hPa | 0 mm | - | 686 W/m² | - |
| 1777749513 | 24.44° C | 46% | 1022.7 hPa | 0 mm | - | 722 W/m² | - |
| 1777748908 | 22.78° C | 43% | 1022.9 hPa | 0 mm | - | 704 W/m² | - |
| 1777745870 | 21.67° C | 55% | 1023.4 hPa | 0 mm | - | 710 W/m² | - |
| 1777743449 | 21.67° C | 55% | 1024.3 hPa | 0 mm | - | 686 W/m² | - |
| 1777743147 | 21.67° C | 59% | 1024.4 hPa | 0 mm | - | 681 W/m² | - |
| 1777742845 | 21.67° C | 58% | 1024.4 hPa | 0 mm | - | 674 W/m² | - |
| 1777742237 | 21.11° C | 61% | 1024.7 hPa | 0 mm | - | 663 W/m² | - |
| 1777741630 | 20.56° C | 59% | 1024.7 hPa | 0 mm | - | 651 W/m² | - |
| 1777741023 | 20.56° C | 59% | 1024.6 hPa | 0 mm | - | 631 W/m² | - |
| 1777740417 | 20.56° C | 56% | 1024.8 hPa | 0 mm | - | 618 W/m² | - |
| 1777739810 | 20° C | 62% | 1024.9 hPa | 0 mm | - | 595 W/m² | - |
* Rain latest hour (hover to see other rain measurements)
** Current wind speed in m/s (hover to see current wind gust speed)